Time,TemperatureF,DewpointF,PressureIn,WindDirection,WindDirectionDegrees,WindSpeedMPH,WindSpeedGustMPH,Humidity,HourlyPrecipIn,Conditions,Clouds,dailyrainin,SoftwareType,DateUTC
2013-03-26 00:00:00,36.7,20.3,29.60,East,90,0.7,1.6,51,0.00,,,0.00,pywws,2013-03-26 04:00:00,
2013-03-26 00:01:00,36.7,20.3,29.60,East,90,0.7,1.6,51,0.00,,,0.00,pywws,2013-03-26 04:01:00,
2013-03-26 00:06:00,36.7,20.3,29.60,East,90,0.7,1.6,51,0.00,,,0.00,pywws,2013-03-26 04:06:00,
2013-03-26 00:12:00,36.0,20.1,29.61,NE,45,0.7,1.6,52,0.00,,,0.00,pywws,2013-03-26 04:12:00,
2013-03-26 00:16:00,36.0,20.1,29.60,NE,45,0.7,1.6,52,0.00,,,0.00,pywws,2013-03-26 04:16:00,
2013-03-26 00:22:00,36.1,20.2,29.60,East,90,0.7,1.6,52,0.00,,,0.00,pywws,2013-03-26 04:22:00,
2013-03-26 00:27:00,36.1,20.2,29.60,NE,45,1.6,2.2,52,0.00,,,0.00,pywws,2013-03-26 04:27:00,
2013-03-26 00:33:00,36.0,20.1,29.61,East,90,0.7,1.6,52,0.00,,,0.00,pywws,2013-03-26 04:33:00,
2013-03-26 00:38:00,35.6,20.2,29.61,SW,225,0.0,1.6,53,0.00,,,0.00,pywws,2013-03-26 04:38:00,
2013-03-26 00:44:00,35.6,20.2,29.61,East,90,0.7,1.6,53,0.00,,,0.00,pywws,2013-03-26 04:44:00,
2013-03-26 00:50:00,35.2,20.3,29.61,NE,45,0.0,1.6,54,0.00,,,0.00,pywws,2013-03-26 04:50:00,
2013-03-26 00:55:00,35.2,20.3,29.61,NE,45,0.0,0.0,54,0.00,,,0.00,pywws,2013-03-26 04:55:00,
2013-03-26 01:01:00,34.9,19.9,29.61,NE,45,0.0,1.6,54,0.00,,,0.00,pywws,2013-03-26 05:01:00,
2013-03-26 01:07:00,34.7,20.2,29.62,NE,45,0.7,1.6,55,0.00,,,0.00,pywws,2013-03-26 05:07:00,
2013-03-26 01:12:00,34.5,20.5,29.62,East,90,0.7,1.6,56,0.00,,,0.00,pywws,2013-03-26 05:12:00,
2013-03-26 01:18:00,34.5,20.5,29.62,East,90,0.7,1.6,56,0.00,,,0.00,pywws,2013-03-26 05:18:00,
2013-03-26 01:23:00,34.3,20.7,29.61,NE,45,0.7,1.6,57,0.00,,,0.00,pywws,2013-03-26 05:23:00,
2013-03-26 01:29:00,34.2,20.5,29.61,East,90,0.7,2.2,57,0.00,,,0.00,pywws,2013-03-26 05:29:00,
2013-03-26 01:34:00,34.2,20.9,29.62,NE,45,0.0,0.0,58,0.00,,,0.00,pywws,2013-03-26 05:34:00,
2013-03-26 01:40:00,34.0,20.8,29.62,NE,45,0.7,1.6,58,0.00,,,0.00,pywws,2013-03-26 05:40:00,
2013-03-26 01:46:00,34.0,21.2,29.62,NE,45,0.0,0.0,59,0.00,,,0.00,pywws,2013-03-26 05:46:00,
2013-03-26 01:51:00,34.2,21.3,29.62,East,90,0.0,0.7,59,0.00,,,0.00,pywws,2013-03-26 05:51:00,
2013-03-26 01:57:00,34.3,21.9,29.62,North,0,0.0,1.6,60,0.00,,,0.00,pywws,2013-03-26 05:57:00,
2013-03-26 02:02:00,34.3,22.3,29.62,NW,315,0.0,0.0,61,0.00,,,0.00,pywws,2013-03-26 06:02:00,
2013-03-26 02:08:00,34.5,22.5,29.62,North,0,0.0,0.0,61,0.00,,,0.00,pywws,2013-03-26 06:08:00,
2013-03-26 02:14:00,34.5,22.5,29.62,NE,45,0.0,0.0,61,0.00,,,0.00,pywws,2013-03-26 06:14:00,
2013-03-26 02:19:00,34.5,22.5,29.62,NE,45,0.0,0.0,61,0.00,,,0.00,pywws,2013-03-26 06:19:00,
2013-03-26 02:25:00,34.3,22.3,29.63,NE,45,0.0,0.0,61,0.00,,,0.00,pywws,2013-03-26 06:25:00,
2013-03-26 02:30:00,34.3,22.7,29.63,NE,45,0.7,1.6,62,0.00,,,0.00,pywws,2013-03-26 06:30:00,
2013-03-26 02:36:00,34.3,22.7,29.63,NE,45,0.0,0.0,62,0.00,,,0.00,pywws,2013-03-26 06:36:00,
2013-03-26 02:42:00,34.2,22.5,29.63,NE,45,0.0,0.0,62,0.00,,,0.00,pywws,2013-03-26 06:42:00,
2013-03-26 02:47:00,34.2,22.5,29.63,NE,45,0.0,0.0,62,0.00,,,0.00,pywws,2013-03-26 06:47:00,
2013-03-26 02:53:00,34.2,22.5,29.63,NE,45,0.0,0.7,62,0.00,,,0.00,pywws,2013-03-26 06:53:00,
2013-03-26 02:58:00,33.8,22.2,29.63,North,0,0.0,0.0,62,0.00,,,0.00,pywws,2013-03-26 06:58:00,
2013-03-26 03:04:00,33.8,22.2,29.63,North,0,0.0,0.0,62,0.00,,,0.00,pywws,2013-03-26 07:04:00,
2013-03-26 03:10:00,33.4,22.2,29.63,NE,45,0.0,0.0,63,0.00,,,0.00,pywws,2013-03-26 07:10:00,
2013-03-26 03:15:00,33.3,22.0,29.63,NE,45,0.0,0.0,63,0.00,,,0.00,pywws,2013-03-26 07:15:00,
2013-03-26 03:21:00,33.3,22.0,29.63,NE,45,0.0,0.0,63,0.00,,,0.00,pywws,2013-03-26 07:21:00,
2013-03-26 03:26:00,33.3,22.0,29.63,NE,45,0.0,0.0,63,0.00,,,0.00,pywws,2013-03-26 07:26:00,
2013-03-26 03:32:00,33.1,22.2,29.64,East,90,0.0,0.0,64,0.00,,,0.00,pywws,2013-03-26 07:32:00,
2013-03-26 03:38:00,33.1,22.2,29.63,NE,45,0.0,0.0,64,0.00,,,0.00,pywws,2013-03-26 07:38:00,
2013-03-26 03:44:00,33.1,22.2,29.63,NE,45,0.0,0.0,64,0.00,,,0.00,pywws,2013-03-26 07:44:00,
2013-03-26 03:50:00,33.1,22.2,29.63,NE,45,0.0,1.6,64,0.00,,,0.00,pywws,2013-03-26 07:50:00,
2013-03-26 03:55:00,32.9,22.1,29.64,NE,45,0.0,0.0,64,0.00,,,0.00,pywws,2013-03-26 07:55:00,
2013-03-26 04:01:00,32.9,22.1,29.64,NE,45,0.0,0.0,64,0.00,,,0.00,pywws,2013-03-26 08:01:00,
2013-03-26 04:06:00,32.9,22.1,29.64,NE,45,0.0,0.0,64,0.00,,,0.00,pywws,2013-03-26 08:06:00,
2013-03-26 04:12:00,32.7,21.9,29.64,NE,45,0.0,0.0,64,0.00,,,0.00,pywws,2013-03-26 08:12:00,
2013-03-26 04:18:00,32.9,22.4,29.64,NE,45,0.0,0.0,65,0.00,,,0.00,pywws,2013-03-26 08:18:00,
2013-03-26 04:24:00,33.1,22.6,29.64,NE,45,0.0,0.0,65,0.00,,,0.00,pywws,2013-03-26 08:24:00,
2013-03-26 04:30:00,33.1,22.6,29.65,NE,45,0.0,0.0,65,0.00,,,0.00,pywws,2013-03-26 08:30:00,
2013-03-26 04:36:00,33.1,22.6,29.65,NE,45,0.0,0.0,65,0.00,,,0.00,pywws,2013-03-26 08:36:00,
2013-03-26 04:41:00,32.9,22.4,29.65,NE,45,0.0,0.7,65,0.00,,,0.00,pywws,2013-03-26 08:41:00,
2013-03-26 04:46:00,32.7,22.3,29.65,NE,45,0.0,0.7,65,0.00,,,0.00,pywws,2013-03-26 08:46:00,
2013-03-26 04:52:00,32.5,22.1,29.65,NE,45,0.0,0.7,65,0.00,,,0.00,pywws,2013-03-26 08:52:00,
2013-03-26 04:58:00,32.9,22.4,29.65,NE,45,0.0,0.0,65,0.00,,,0.00,pywws,2013-03-26 08:58:00,
2013-03-26 05:04:00,32.9,22.4,29.65,NE,45,0.0,0.0,65,0.00,,,0.00,pywws,2013-03-26 09:04:00,
2013-03-26 05:10:00,32.5,22.1,29.66,SW,225,0.0,0.0,65,0.00,,,0.00,pywws,2013-03-26 09:10:00,
2013-03-26 05:16:00,32.4,21.9,29.66,NE,45,0.0,0.0,65,0.00,,,0.00,pywws,2013-03-26 09:16:00,
2013-03-26 05:21:00,32.5,22.5,29.66,NE,45,0.0,0.0,66,0.00,,,0.00,pywws,2013-03-26 09:21:00,
2013-03-26 05:26:00,32.5,22.5,29.66,NE,45,0.0,0.0,66,0.00,,,0.00,pywws,2013-03-26 09:26:00,
2013-03-26 05:32:00,32.7,22.6,29.66,NE,45,0.0,0.0,66,0.00,,,0.00,pywws,2013-03-26 09:32:00,
2013-03-26 05:38:00,32.7,22.6,29.66,West,270,0.0,0.0,66,0.00,,,0.00,pywws,2013-03-26 09:38:00,
2013-03-26 05:44:00,32.9,22.8,29.66,West,270,0.0,0.0,66,0.00,,,0.00,pywws,2013-03-26 09:44:00,
2013-03-26 05:50:00,33.1,23.0,29.66,North,0,0.0,0.0,66,0.00,,,0.00,pywws,2013-03-26 09:50:00,
2013-03-26 05:55:00,33.3,23.1,29.66,North,0,0.0,0.0,66,0.00,,,0.00,pywws,2013-03-26 09:55:00,
2013-03-26 06:01:00,33.3,23.1,29.67,NW,315,0.7,1.6,66,0.00,,,0.00,pywws,2013-03-26 10:01:00,
2013-03-26 06:06:00,32.9,23.2,29.67,East,90,1.6,2.2,67,0.00,,,0.00,pywws,2013-03-26 10:06:00,
2013-03-26 06:12:00,32.5,22.8,29.67,NE,45,0.0,0.0,67,0.00,,,0.00,pywws,2013-03-26 10:12:00,
2013-03-26 06:18:00,32.7,23.0,29.67,NE,45,0.0,0.0,67,0.00,,,0.00,pywws,2013-03-26 10:18:00,
2013-03-26 06:24:00,32.9,23.2,29.68,NE,45,0.0,0.0,67,0.00,,,0.00,pywws,2013-03-26 10:24:00,
2013-03-26 06:30:00,33.1,23.0,29.68,NE,45,0.0,0.0,66,0.00,,,0.00,pywws,2013-03-26 10:30:00,
2013-03-26 06:35:00,33.1,23.0,29.68,NW,315,0.0,0.0,66,0.00,,,0.00,pywws,2013-03-26 10:35:00,
2013-03-26 06:41:00,33.1,23.0,29.69,East,90,0.0,1.6,66,0.00,,,0.00,pywws,2013-03-26 10:41:00,
2013-03-26 06:46:00,33.1,23.0,29.69,East,90,0.0,0.7,66,0.00,,,0.00,pywws,2013-03-26 10:46:00,
2013-03-26 06:52:00,32.9,23.2,29.69,NE,45,0.0,0.0,67,0.00,,,0.00,pywws,2013-03-26 10:52:00,
2013-03-26 06:58:00,33.1,23.3,29.69,North,0,0.0,0.0,67,0.00,,,0.00,pywws,2013-03-26 10:58:00,
2013-03-26 07:04:00,33.1,23.3,29.69,NE,45,0.0,0.0,67,0.00,,,0.00,pywws,2013-03-26 11:04:00,
2013-03-26 07:10:00,33.3,23.5,29.69,NE,45,0.0,0.0,67,0.00,,,0.00,pywws,2013-03-26 11:10:00,
2013-03-26 07:15:00,33.3,23.5,29.70,NE,45,0.0,0.0,67,0.00,,,0.00,pywws,2013-03-26 11:15:00,
2013-03-26 07:21:00,33.4,23.7,29.70,NE,45,0.0,0.0,67,0.00,,,0.00,pywws,2013-03-26 11:21:00,
2013-03-26 07:26:00,33.6,23.9,29.70,NE,45,0.0,0.0,67,0.00,,,0.00,pywws,2013-03-26 11:26:00,
2013-03-26 07:32:00,33.8,23.7,29.70,NW,315,0.0,0.0,66,0.00,,,0.00,pywws,2013-03-26 11:32:00,
2013-03-26 07:38:00,34.0,23.8,29.70,West,270,0.7,1.6,66,0.00,,,0.00,pywws,2013-03-26 11:38:00,
2013-03-26 07:44:00,34.2,24.0,29.70,West,270,0.0,0.7,66,0.00,,,0.00,pywws,2013-03-26 11:44:00,
2013-03-26 07:50:00,34.3,24.2,29.71,North,0,0.0,0.0,66,0.00,,,0.00,pywws,2013-03-26 11:50:00,
2013-03-26 07:55:00,34.5,24.0,29.71,North,0,0.0,0.7,65,0.00,,,0.00,pywws,2013-03-26 11:55:00,
2013-03-26 08:01:00,34.9,24.3,29.71,North,0,0.0,0.0,65,0.00,,,0.00,pywws,2013-03-26 12:01:00,
2013-03-26 08:06:00,35.1,24.5,29.71,North,0,0.0,0.0,65,0.00,,,0.00,pywws,2013-03-26 12:06:00,
2013-03-26 08:12:00,35.1,24.9,29.71,NE,45,0.0,0.7,66,0.00,,,0.00,pywws,2013-03-26 12:12:00,
2013-03-26 08:18:00,35.1,24.9,29.72,North,0,0.0,0.7,66,0.00,,,0.00,pywws,2013-03-26 12:18:00,
2013-03-26 08:23:00,35.4,25.2,29.72,NE,45,0.0,0.0,66,0.00,,,0.00,pywws,2013-03-26 12:23:00,
2013-03-26 08:29:00,35.6,25.0,29.72,North,0,0.0,0.7,65,0.00,,,0.00,pywws,2013-03-26 12:29:00,
2013-03-26 08:34:00,36.0,25.0,29.72,North,0,0.7,1.6,64,0.00,,,0.00,pywws,2013-03-26 12:34:00,
2013-03-26 08:40:00,36.5,24.7,29.72,West,270,1.6,2.2,62,0.00,,,0.00,pywws,2013-03-26 12:40:00,
2013-03-26 08:46:00,37.0,24.1,29.72,NW,315,0.7,1.6,59,0.00,,,0.00,pywws,2013-03-26 12:46:00,
2013-03-26 08:51:00,37.4,25.6,29.73,WNW,292,2.2,3.1,62,0.00,,,0.00,pywws,2013-03-26 12:51:00,
2013-03-26 08:57:00,37.6,26.1,29.72,NW,315,2.2,3.8,63,0.00,,,0.00,pywws,2013-03-26 12:57:00,
2013-03-26 09:02:00,37.8,25.9,29.72,NE,45,1.6,3.1,62,0.00,,,0.00,pywws,2013-03-26 13:02:00,
2013-03-26 09:08:00,38.1,26.3,29.73,NE,45,0.0,2.2,62,0.00,,,0.00,pywws,2013-03-26 13:08:00,
2013-03-26 09:14:00,38.7,26.4,29.73,NE,45,1.6,2.2,61,0.00,,,0.00,pywws,2013-03-26 13:14:00,
2013-03-26 09:19:00,39.2,26.5,29.74,North,0,1.6,2.2,60,0.00,,,0.00,pywws,2013-03-26 13:19:00,
2013-03-26 09:25:00,39.6,26.0,29.74,North,0,0.0,1.6,58,0.00,,,0.00,pywws,2013-03-26 13:25:00,
2013-03-26 09:30:00,41.4,27.7,29.75,NW,315,1.6,3.8,58,0.00,,,0.00,pywws,2013-03-26 13:30:00,
2013-03-26 09:36:00,41.7,26.8,29.75,North,0,1.6,3.1,55,0.00,,,0.00,pywws,2013-03-26 13:36:00,
2013-03-26 09:41:00,41.9,27.4,29.75,NE,45,2.2,3.8,56,0.00,,,0.00,pywws,2013-03-26 13:41:00,
2013-03-26 09:46:00,42.1,26.6,29.75,NE,45,2.2,3.8,54,0.00,,,0.00,pywws,2013-03-26 13:46:00,
2013-03-26 09:51:00,41.9,26.5,29.75,West,270,3.8,5.4,54,0.00,,,0.00,pywws,2013-03-26 13:51:00,
2013-03-26 09:57:00,41.9,26.5,29.75,North,0,3.1,3.8,54,0.00,,,0.00,pywws,2013-03-26 13:57:00,
2013-03-26 10:02:00,42.3,26.8,29.75,NE,45,1.6,3.1,54,0.00,,,0.00,pywws,2013-03-26 14:02:00,
2013-03-26 10:08:00,43.2,26.7,29.75,West,270,3.8,5.4,52,0.00,,,0.00,pywws,2013-03-26 14:08:00,
2013-03-26 10:14:00,43.7,27.2,29.75,North,0,2.2,3.1,52,0.00,,,0.00,pywws,2013-03-26 14:14:00,
2013-03-26 10:19:00,43.3,26.0,29.76,NW,315,3.1,4.5,50,0.00,,,0.00,pywws,2013-03-26 14:19:00,
2013-03-26 10:25:00,43.7,27.2,29.76,NNE,22,1.6,3.1,52,0.00,,,0.00,pywws,2013-03-26 14:25:00,
2013-03-26 10:30:00,44.2,27.3,29.76,NNE,22,2.2,4.5,51,0.00,,,0.00,pywws,2013-03-26 14:30:00,
2013-03-26 10:36:00,44.6,26.1,29.75,ENE,68,3.8,4.5,48,0.00,,,0.00,pywws,2013-03-26 14:36:00,
2013-03-26 10:42:00,45.3,27.3,29.75,North,0,1.6,3.8,49,0.00,,,0.00,pywws,2013-03-26 14:42:00,
2013-03-26 10:47:00,46.0,26.4,29.75,North,0,2.2,3.8,46,0.00,,,0.00,pywws,2013-03-26 14:47:00,
2013-03-26 10:53:00,45.3,25.8,29.75,NNE,22,2.2,3.1,46,0.00,,,0.00,pywws,2013-03-26 14:53:00,
2013-03-26 10:59:00,45.1,25.6,29.75,NW,315,1.6,2.2,46,0.00,,,0.00,pywws,2013-03-26 14:59:00,
2013-03-26 11:05:00,47.1,28.4,29.75,NE,45,2.2,3.8,48,0.00,,,0.00,pywws,2013-03-26 15:05:00,
2013-03-26 11:10:00,48.4,27.5,29.76,NE,45,2.2,5.4,44,0.00,,,0.00,pywws,2013-03-26 15:10:00,
2013-03-26 11:16:00,48.9,27.4,29.75,North,0,3.8,6.0,43,0.00,,,0.00,pywws,2013-03-26 15:16:00,
2013-03-26 11:21:00,49.5,27.9,29.75,NW,315,1.6,2.2,43,0.00,,,0.00,pywws,2013-03-26 15:21:00,
2013-03-26 11:26:00,49.3,27.2,29.76,NW,315,3.1,4.5,42,0.00,,,0.00,pywws,2013-03-26 15:26:00,
2013-03-26 11:32:00,49.1,27.6,29.76,North,0,2.2,3.8,43,0.00,,,0.00,pywws,2013-03-26 15:32:00,
2013-03-26 11:38:00,49.6,26.3,29.76,NE,45,0.7,2.2,40,0.00,,,0.00,pywws,2013-03-26 15:38:00,
2013-03-26 11:43:00,50.5,26.5,29.76,East,90,3.8,5.4,39,0.00,,,0.00,pywws,2013-03-26 15:43:00,
2013-03-26 11:49:00,50.9,26.2,29.76,NW,315,4.5,10.7,38,0.00,,,0.00,pywws,2013-03-26 15:49:00,
2013-03-26 11:54:00,50.2,25.6,29.75,East,90,2.2,3.8,38,0.00,,,0.00,pywws,2013-03-26 15:54:00,
2013-03-26 12:00:00,51.3,25.2,29.75,NE,45,1.6,3.1,36,0.00,,,0.00,pywws,2013-03-26 16:00:00,
2013-03-26 12:06:00,49.1,24.0,29.76,North,0,1.6,2.2,37,0.00,,,0.00,pywws,2013-03-26 16:06:00,
2013-03-26 12:11:00,47.5,25.0,29.75,East,90,2.2,3.1,41,0.00,,,0.00,pywws,2013-03-26 16:11:00,
2013-03-26 12:16:00,46.2,25.0,29.76,NW,315,1.6,3.1,43,0.00,,,0.00,pywws,2013-03-26 16:16:00,
2013-03-26 12:22:00,47.8,28.6,29.76,North,0,2.2,3.8,47,0.00,,,0.00,pywws,2013-03-26 16:22:00,
2013-03-26 12:27:00,50.9,29.2,29.75,North,0,2.2,3.8,43,0.00,,,0.00,pywws,2013-03-26 16:27:00,
2013-03-26 12:33:00,50.9,26.8,29.75,North,0,3.1,5.4,39,0.00,,,0.00,pywws,2013-03-26 16:33:00,
2013-03-26 12:38:00,51.4,26.0,29.76,NNE,22,2.2,5.4,37,0.00,,,0.00,pywws,2013-03-26 16:38:00,
2013-03-26 12:44:00,50.5,25.2,29.75,NNE,22,2.2,3.8,37,0.00,,,0.00,pywws,2013-03-26 16:44:00,
2013-03-26 12:50:00,49.1,25.2,29.76,NE,45,2.2,4.5,39,0.00,,,0.00,pywws,2013-03-26 16:50:00,
2013-03-26 12:55:00,47.8,27.5,29.76,North,0,1.6,3.1,45,0.00,,,0.00,pywws,2013-03-26 16:55:00,
2013-03-26 13:01:00,47.7,27.9,29.76,East,90,3.1,5.4,46,0.00,,,0.00,pywws,2013-03-26 17:01:00,
2013-03-26 13:06:00,48.7,28.9,29.76,NW,315,2.2,3.1,46,0.00,,,0.00,pywws,2013-03-26 17:06:00,
2013-03-26 13:12:00,50.7,29.0,29.75,North,0,3.8,7.6,43,0.00,,,0.00,pywws,2013-03-26 17:12:00,
2013-03-26 13:18:00,51.4,25.4,29.75,North,0,0.7,2.2,36,0.00,,,0.00,pywws,2013-03-26 17:18:00,
2013-03-26 13:23:00,49.8,25.9,29.75,North,0,2.2,4.5,39,0.00,,,0.00,pywws,2013-03-26 17:23:00,
2013-03-26 13:29:00,50.4,24.4,29.75,NNE,22,2.2,3.1,36,0.00,,,0.00,pywws,2013-03-26 17:29:00,
2013-03-26 13:34:00,49.8,25.2,29.75,North,0,2.2,3.1,38,0.00,,,0.00,pywws,2013-03-26 17:34:00,
2013-03-26 13:40:00,49.5,26.2,29.75,North,0,2.2,4.5,40,0.00,,,0.00,pywws,2013-03-26 17:40:00,
2013-03-26 13:46:00,50.4,27.0,29.75,NE,45,2.2,4.5,40,0.00,,,0.00,pywws,2013-03-26 17:46:00,
2013-03-26 13:51:00,53.1,26.8,29.75,NW,315,2.2,4.5,36,0.00,,,0.00,pywws,2013-03-26 17:51:00,
2013-03-26 13:56:00,54.5,27.4,29.75,North,0,3.1,4.5,35,0.00,,,0.00,pywws,2013-03-26 17:56:00,
2013-03-26 14:02:00,55.6,26.9,29.75,WNW,292,5.4,9.2,33,0.00,,,0.00,pywws,2013-03-26 18:02:00,
2013-03-26 14:07:00,54.0,24.0,29.75,North,0,3.1,4.5,31,0.00,,,0.00,pywws,2013-03-26 18:07:00,
2013-03-26 14:13:00,51.3,23.9,29.75,North,0,1.6,3.1,34,0.00,,,0.00,pywws,2013-03-26 18:13:00,
2013-03-26 14:18:00,49.8,24.0,29.75,North,0,2.2,4.5,36,0.00,,,0.00,pywws,2013-03-26 18:18:00,
2013-03-26 14:24:00,52.0,28.4,29.74,North,0,2.2,3.8,40,0.00,,,0.00,pywws,2013-03-26 18:24:00,
2013-03-26 14:30:00,55.0,25.7,29.74,North,0,1.6,3.1,32,0.00,,,0.00,pywws,2013-03-26 18:30:00,
2013-03-26 14:35:00,53.6,22.9,29.75,NE,45,0.7,1.6,30,0.00,,,0.00,pywws,2013-03-26 18:35:00,
2013-03-26 14:41:00,51.1,23.0,29.75,North,0,0.7,1.6,33,0.00,,,0.00,pywws,2013-03-26 18:41:00,
2013-03-26 14:46:00,49.1,23.3,29.75,North,0,0.7,2.2,36,0.00,,,0.00,pywws,2013-03-26 18:46:00,
2013-03-26 14:52:00,47.5,25.5,29.75,North,0,2.2,4.5,42,0.00,,,0.00,pywws,2013-03-26 18:52:00,
2013-03-26 14:58:00,46.4,27.3,29.75,NW,315,2.2,3.1,47,0.00,,,0.00,pywws,2013-03-26 18:58:00,
2013-03-26 15:03:00,46.4,27.8,29.75,North,0,0.7,1.6,48,0.00,,,0.00,pywws,2013-03-26 19:03:00,
2013-03-26 15:09:00,47.3,30.1,29.75,North,0,1.6,3.1,51,0.00,,,0.00,pywws,2013-03-26 19:09:00,
2013-03-26 15:14:00,50.5,30.5,29.75,NE,45,0.7,2.2,46,0.00,,,0.00,pywws,2013-03-26 19:14:00,
2013-03-26 15:20:00,49.6,27.5,29.75,North,0,1.6,2.2,42,0.00,,,0.00,pywws,2013-03-26 19:20:00,
2013-03-26 15:26:00,48.6,27.1,29.75,NE,45,1.6,2.2,43,0.00,,,0.00,pywws,2013-03-26 19:26:00,
2013-03-26 15:31:00,47.7,26.3,29.75,NE,45,2.2,3.1,43,0.00,,,0.00,pywws,2013-03-26 19:31:00,
2013-03-26 15:37:00,46.8,27.1,29.76,NE,45,0.7,2.2,46,0.00,,,0.00,pywws,2013-03-26 19:37:00,
2013-03-26 15:42:00,46.8,26.6,29.76,NW,315,0.7,2.2,45,0.00,,,0.00,pywws,2013-03-26 19:42:00,
2013-03-26 15:48:00,46.8,27.1,29.76,NW,315,1.6,3.1,46,0.00,,,0.00,pywws,2013-03-26 19:48:00,
2013-03-26 15:54:00,46.8,27.1,29.76,NE,45,2.2,3.1,46,0.00,,,0.00,pywws,2013-03-26 19:54:00,
2013-03-26 15:59:00,46.0,25.4,29.77,North,0,1.6,3.8,44,0.00,,,0.00,pywws,2013-03-26 19:59:00,
2013-03-26 16:05:00,45.7,25.0,29.77,West,270,1.6,3.1,44,0.00,,,0.00,pywws,2013-03-26 20:05:00,
2013-03-26 16:10:00,45.9,25.7,29.76,North,0,0.0,1.6,45,0.00,,,0.00,pywws,2013-03-26 20:10:00,
2013-03-26 16:16:00,46.8,27.1,29.76,NE,45,0.7,2.2,46,0.00,,,0.00,pywws,2013-03-26 20:16:00,
2013-03-26 16:22:00,46.8,26.6,29.77,North,0,0.7,1.6,45,0.00,,,0.00,pywws,2013-03-26 20:22:00,
2013-03-26 16:27:00,46.9,26.7,29.77,NW,315,1.6,3.8,45,0.00,,,0.00,pywws,2013-03-26 20:27:00,
2013-03-26 16:33:00,46.9,26.7,29.77,NW,315,2.2,3.1,45,0.00,,,0.00,pywws,2013-03-26 20:33:00,
2013-03-26 16:38:00,47.1,26.3,29.76,NE,45,0.7,2.2,44,0.00,,,0.00,pywws,2013-03-26 20:38:00,
2013-03-26 16:44:00,46.9,25.1,29.76,NE,45,2.2,3.1,42,0.00,,,0.00,pywws,2013-03-26 20:44:00,
2013-03-26 16:50:00,48.2,27.3,29.77,North,0,0.7,3.1,44,0.00,,,0.00,pywws,2013-03-26 20:50:00,
2013-03-26 16:55:00,49.1,23.3,29.77,NE,45,1.6,2.2,36,0.00,,,0.00,pywws,2013-03-26 20:55:00,
2013-03-26 17:01:00,48.6,23.5,29.77,North,0,0.7,1.6,37,0.00,,,0.00,pywws,2013-03-26 21:01:00,
2013-03-26 17:06:00,48.4,23.3,29.77,NW,315,1.6,3.8,37,0.00,,,0.00,pywws,2013-03-26 21:06:00,
2013-03-26 17:12:00,48.2,24.4,29.77,NE,45,2.2,3.1,39,0.00,,,0.00,pywws,2013-03-26 21:12:00,
2013-03-26 17:18:00,50.7,25.4,29.77,NE,45,1.6,3.1,37,0.00,,,0.00,pywws,2013-03-26 21:18:00,
2013-03-26 17:23:00,50.2,22.2,29.77,North,0,1.6,2.2,33,0.00,,,0.00,pywws,2013-03-26 21:23:00,
2013-03-26 17:29:00,48.2,21.2,29.77,South,180,3.1,6.0,34,0.00,,,0.00,pywws,2013-03-26 21:29:00,
2013-03-26 17:34:00,47.1,20.9,29.77,NE,45,2.2,3.8,35,0.00,,,0.00,pywws,2013-03-26 21:34:00,
2013-03-26 17:40:00,47.1,21.6,29.77,East,90,0.7,3.8,36,0.00,,,0.00,pywws,2013-03-26 21:40:00,
2013-03-26 17:46:00,47.8,22.8,29.78,NNE,22,0.7,2.2,37,0.00,,,0.00,pywws,2013-03-26 21:46:00,
2013-03-26 17:51:00,48.6,20.1,29.78,North,0,2.2,3.8,32,0.00,,,0.00,pywws,2013-03-26 21:51:00,
2013-03-26 17:57:00,48.2,21.2,29.78,NE,45,1.6,3.1,34,0.00,,,0.00,pywws,2013-03-26 21:57:00,
2013-03-26 18:02:00,50.0,22.0,29.78,NW,315,1.6,2.2,33,0.00,,,0.00,pywws,2013-03-26 22:02:00,
2013-03-26 18:08:00,51.1,20.7,29.78,East,90,1.6,3.1,30,0.00,,,0.00,pywws,2013-03-26 22:08:00,
2013-03-26 18:14:00,50.9,20.6,29.78,NE,45,1.6,2.2,30,0.00,,,0.00,pywws,2013-03-26 22:14:00,
2013-03-26 18:19:00,50.0,20.6,29.79,NE,45,0.7,1.6,31,0.00,,,0.00,pywws,2013-03-26 22:19:00,
2013-03-26 18:25:00,49.5,22.3,29.79,NE,45,0.7,2.2,34,0.00,,,0.00,pywws,2013-03-26 22:25:00,
2013-03-26 18:30:00,48.6,21.5,29.79,North,0,0.7,1.6,34,0.00,,,0.00,pywws,2013-03-26 22:30:00,
2013-03-26 18:36:00,48.4,21.3,29.79,NE,45,0.7,1.6,34,0.00,,,0.00,pywws,2013-03-26 22:36:00,
2013-03-26 18:41:00,47.5,21.2,29.79,North,0,0.0,0.7,35,0.00,,,0.00,pywws,2013-03-26 22:41:00,
2013-03-26 18:46:00,46.0,19.9,29.80,North,0,1.6,2.2,35,0.00,,,0.00,pywws,2013-03-26 22:46:00,
2013-03-26 18:52:00,44.8,20.1,29.80,NE,45,0.0,0.0,37,0.00,,,0.00,pywws,2013-03-26 22:52:00,
2013-03-26 18:58:00,43.7,20.4,29.80,NE,45,0.0,0.7,39,0.00,,,0.00,pywws,2013-03-26 22:58:00,
2013-03-26 19:03:00,43.2,21.6,29.80,NE,45,2.2,3.1,42,0.00,,,0.00,pywws,2013-03-26 23:03:00,
2013-03-26 19:09:00,43.3,21.8,29.80,North,0,1.6,2.2,42,0.00,,,0.00,pywws,2013-03-26 23:09:00,
2013-03-26 19:14:00,43.2,21.6,29.80,NNE,22,1.6,2.2,42,0.00,,,0.00,pywws,2013-03-26 23:14:00,
2013-03-26 19:20:00,42.8,21.3,29.80,NE,45,0.7,2.2,42,0.00,,,0.00,pywws,2013-03-26 23:20:00,
2013-03-26 19:26:00,42.3,21.4,29.80,NE,45,0.0,0.7,43,0.00,,,0.00,pywws,2013-03-26 23:26:00,
2013-03-26 19:31:00,42.1,21.2,29.81,NE,45,0.7,1.6,43,0.00,,,0.00,pywws,2013-03-26 23:31:00,
2013-03-26 19:36:00,41.7,20.9,29.81,East,90,0.7,2.2,43,0.00,,,0.00,pywws,2013-03-26 23:36:00,
2013-03-26 19:42:00,41.0,20.8,29.81,NE,45,1.6,2.2,44,0.00,,,0.00,pywws,2013-03-26 23:42:00,
2013-03-26 19:47:00,40.6,21.5,29.82,East,90,0.0,1.6,46,0.00,,,0.00,pywws,2013-03-26 23:47:00,
2013-03-26 19:52:00,39.9,21.3,29.82,NE,45,0.0,0.0,47,0.00,,,0.00,pywws,2013-03-26 23:52:00,
2013-03-26 19:58:00,39.9,21.3,29.82,East,90,1.6,2.2,47,0.00,,,0.00,pywws,2013-03-26 23:58:00,
2013-03-26 20:03:00,39.4,21.3,29.82,East,90,0.0,0.7,48,0.00,,,0.00,pywws,2013-03-27 00:03:00,
2013-03-26 20:09:00,38.7,22.1,29.82,East,90,0.7,1.6,51,0.00,,,0.00,pywws,2013-03-27 00:09:00,
2013-03-26 20:14:00,38.3,21.3,29.83,East,90,0.7,1.6,50,0.00,,,0.00,pywws,2013-03-27 00:14:00,
2013-03-26 20:20:00,38.3,21.8,29.83,East,90,0.0,0.0,51,0.00,,,0.00,pywws,2013-03-27 00:20:00,
2013-03-26 20:26:00,37.8,21.7,29.83,East,90,0.0,0.7,52,0.00,,,0.00,pywws,2013-03-27 00:26:00,
2013-03-26 20:31:00,37.4,21.9,29.83,East,90,0.7,1.6,53,0.00,,,0.00,pywws,2013-03-27 00:31:00,
2013-03-26 20:37:00,37.0,20.1,29.83,NNW,338,0.7,1.6,50,0.00,,,0.00,pywws,2013-03-27 00:37:00,
2013-03-26 20:42:00,36.9,20.0,29.83,East,90,0.7,2.2,50,0.00,,,0.00,pywws,2013-03-27 00:42:00,
2013-03-26 20:48:00,36.7,20.3,29.84,East,90,0.7,1.6,51,0.00,,,0.00,pywws,2013-03-27 00:48:00,
2013-03-26 20:54:00,36.5,20.1,29.84,East,90,0.0,0.0,51,0.00,,,0.00,pywws,2013-03-27 00:54:00,
2013-03-26 20:59:00,36.3,19.9,29.85,East,90,0.0,0.0,51,0.00,,,0.00,pywws,2013-03-27 00:59:00,
2013-03-26 21:05:00,36.3,19.9,29.84,East,90,0.0,0.0,51,0.00,,,0.00,pywws,2013-03-27 01:05:00,
2013-03-26 21:10:00,36.1,20.2,29.85,East,90,0.0,0.0,52,0.00,,,0.00,pywws,2013-03-27 01:10:00,
2013-03-26 21:16:00,36.1,20.2,29.84,East,90,0.0,0.0,52,0.00,,,0.00,pywws,2013-03-27 01:16:00,
2013-03-26 21:22:00,36.0,20.1,29.85,East,90,0.0,0.0,52,0.00,,,0.00,pywws,2013-03-27 01:22:00,
2013-03-26 21:27:00,36.0,20.1,29.85,East,90,0.0,0.0,52,0.00,,,0.00,pywws,2013-03-27 01:27:00,
2013-03-26 21:33:00,36.1,20.2,29.85,East,90,0.0,0.0,52,0.00,,,0.00,pywws,2013-03-27 01:33:00,
2013-03-26 21:39:00,36.3,20.4,29.85,NE,45,0.0,0.0,52,0.00,,,0.00,pywws,2013-03-27 01:39:00,
2013-03-26 21:45:00,36.1,20.2,29.85,NE,45,0.0,0.0,52,0.00,,,0.00,pywws,2013-03-27 01:45:00,
2013-03-26 21:50:00,36.0,20.5,29.85,NE,45,0.0,0.0,53,0.00,,,0.00,pywws,2013-03-27 01:50:00,
2013-03-26 21:56:00,36.0,20.1,29.86,NE,45,0.0,0.0,52,0.00,,,0.00,pywws,2013-03-27 01:56:00,
2013-03-26 22:02:00,36.0,20.1,29.86,NE,45,0.0,0.0,52,0.00,,,0.00,pywws,2013-03-27 02:02:00,
2013-03-26 22:08:00,36.0,20.1,29.86,NE,45,0.0,0.0,52,0.00,,,0.00,pywws,2013-03-27 02:08:00,
2013-03-26 22:14:00,35.8,19.9,29.86,NE,45,0.0,0.0,52,0.00,,,0.00,pywws,2013-03-27 02:14:00,
2013-03-26 22:19:00,35.4,20.0,29.86,NE,45,0.0,0.0,53,0.00,,,0.00,pywws,2013-03-27 02:19:00,
2013-03-26 22:25:00,35.1,19.7,29.86,NE,45,0.0,0.0,53,0.00,,,0.00,pywws,2013-03-27 02:25:00,
2013-03-26 22:30:00,34.7,19.8,29.86,East,90,0.0,0.0,54,0.00,,,0.00,pywws,2013-03-27 02:30:00,
2013-03-26 22:36:00,34.7,19.8,29.86,North,0,0.0,0.0,54,0.00,,,0.00,pywws,2013-03-27 02:36:00,
2013-03-26 22:42:00,34.3,19.4,29.86,NE,45,0.0,0.0,54,0.00,,,0.00,pywws,2013-03-27 02:42:00,
2013-03-26 22:48:00,34.2,19.3,29.86,NE,45,0.0,0.0,54,0.00,,,0.00,pywws,2013-03-27 02:48:00,
2013-03-26 22:54:00,33.8,18.9,29.86,NE,45,0.0,0.0,54,0.00,,,0.00,pywws,2013-03-27 02:54:00,
2013-03-26 22:59:00,33.8,18.9,29.86,NE,45,0.0,0.0,54,0.00,,,0.00,pywws,2013-03-27 02:59:00,
2013-03-26 23:05:00,33.8,18.9,29.87,NE,45,0.0,0.0,54,0.00,,,0.00,pywws,2013-03-27 03:05:00,
2013-03-26 23:10:00,33.8,18.9,29.86,NE,45,0.0,0.0,54,0.00,,,0.00,pywws,2013-03-27 03:10:00,
2013-03-26 23:16:00,33.8,19.4,29.86,NE,45,0.0,0.0,55,0.00,,,0.00,pywws,2013-03-27 03:16:00,
2013-03-26 23:22:00,33.8,19.4,29.86,NE,45,0.0,0.0,55,0.00,,,0.00,pywws,2013-03-27 03:22:00,
2013-03-26 23:27:00,33.4,19.4,29.86,NE,45,0.0,0.0,56,0.00,,,0.00,pywws,2013-03-27 03:27:00,
2013-03-26 23:34:00,33.1,19.5,29.86,NE,45,0.0,0.0,57,0.00,,,0.00,pywws,2013-03-27 03:34:00,
2013-03-26 23:40:00,33.1,19.5,29.86,NE,45,0.0,0.0,57,0.00,,,0.00,pywws,2013-03-27 03:40:00,
2013-03-26 23:46:00,32.9,19.4,29.87,NE,45,0.0,0.0,57,0.00,,,0.00,pywws,2013-03-27 03:46:00,
2013-03-26 23:51:00,32.9,19.4,29.86,North,0,0.0,0.0,57,0.00,,,0.00,pywws,2013-03-27 03:51:00,
2013-03-26 23:57:00,33.3,19.7,29.86,North,0,0.0,0.0,57,0.00,,,0.00,pywws,2013-03-27 03:57:00,